7 * 24
多渠道服务支持
STARLINK-34491是美国SpaceX星链星座的卫星,于2025年7月8日发射入轨,星链是全球低轨卫星互联网星座计划,旨在为全球提供高速低延迟互联网服务,该卫星承担为偏远地区、移动场景提供互联网接入,补充全球网络覆盖能力,服役后将融入庞大的星链卫星网络,推动卫星互联网的全球覆盖进程。
美国
(US)
| 数据来源 | 国际轨道数据 | AOE轨道数据 |
| 星历时间 | 2026-09-04T12:04:47+0800 8小时前 查看轨道信息 | 2026-09-01T01:00:00+0800 3天前 查看轨道信息 |
| 半长轴 | 6840.881km | 6840.85km |
| 偏心率 | 0.0000894 | 0.0001037 |
| 轨道倾角 | 53.157° | 53.157° |
| 近地点辐角 | 56.085° | 104.196° |
| 升交点赤经 | 129.771° | 145.953° |
| 平近点角 | 304.023° | 203.740° |
| 近地点 | 462.132km | 462.003km |
| 远地点 | 463.356km | 463.423km |
| 周期 | 93.849分钟 | 93.848分钟 |
| 每日圈数 | 15.343865 | 15.343968 |
| 事件ID | 空间交会对象 | 最接近时刻(TCA) | 交会距离 | 交会风险概率(CRP) | 交会风险指数(CRI) | 操作 |
|---|---|---|---|---|---|---|
| CDM_260905-092306-478006-608021 |
STARLINK-34491
(64780)
STARLINK-35325
(66080) | 2026-09-05T 09:23:43+0000 |
0.090 km
近距离 | 7.482666E-4 高风险 | 0.92 | |
| CDM_260905-101006-478006-608021 |
STARLINK-34491
(64780)
STARLINK-35325
(66080) | 2026-09-05T 10:10:36+0000 |
1.110 km
极远距离 | 2.494746E-6 低风险 | 0.43 | |
| CDM_260905-083204-846806-478021 |
STARLINK-2685
(48468)
STARLINK-34491
(64780) | 2026-09-05T 08:32:28+0000 |
1.663 km
极远距离 | 2.405853E-6 低风险 | 0.43 | |
| CDM_260906-013205-211006-478021 |
STARLINK-3687
(52110)
STARLINK-34491
(64780) | 2026-09-06T 01:32:12+0000 |
2.303 km
极远距离 | 1.778641E-6 低风险 | 0.4 | |
| CDM_260905-114406-478006-608021 |
STARLINK-34491
(64780)
STARLINK-35325
(66080) | 2026-09-05T 11:44:24+0000 |
1.289 km
极远距离 | 1.55261E-6 低风险 | 0.39 | |
| CDM_260906-044804-977106-478021 |
STARLINK-3201
(49771)
STARLINK-34491
(64780) | 2026-09-06T 04:48:21+0000 |
2.923 km
极远距离 | 9.873983E-7 极低风险 | 0.35 | |
| CDM_260905-074906-478006-608021 |
STARLINK-34491
(64780)
STARLINK-35325
(66080) | 2026-09-05T 07:49:55+0000 |
2.081 km
极远距离 | 4.632775E-7 极低风险 | 0.28 | |
| CDM_260905-105706-478006-608021 |
STARLINK-34491
(64780)
STARLINK-35325
(66080) | 2026-09-05T 10:57:30+0000 |
2.277 km
极远距离 | 3.959859E-7 极低风险 | 0.27 | |
| CDM_260903-234706-478006-619921 |
STARLINK-34491
(64780)
STARLINK-35509
(66199) | 2026-09-03T 23:47:14+0000 |
2.463 km
极远距离 | 3.947337E-7 极低风险 | 0.27 |